www.pogodaiklimat.ru

Погода и климат >> Архив погоды >> Россия >> Красноярский край >> Туруханск


ПОГОДА в Туруханске

АРХИВ ПОГОДЫ в Туруханске

Время (UTC), дата Ветер
(напр.,м/с)
 
Видим.   Явления Облачность Т
(С)
Тd
(С)
f
(%)
Тe
(С)
Тes
(С)
Комфортность P
(гПа)
Po
(гПа)
Тmin
(С)
Tmax
(С)
R
(мм)
R24
(мм)
S
(см)
12 12.12 Ю 5 10 км слабый ливневой снег {метель} 9/8 300 м
[Cb cap Cs]
-10.6 -11.9 90 -19 -19 1015.5 1010.0 -8.3 0.2
15 12.12 Ю 3 10 км слабый ливневой снег {метель} 10/10 300 м
[Cb cap]
-10.6 -11.9 90 -17 -17 1014.0 1008.5
18 12.12 Ю 3 10 км слабый ливневой снег {метель} 10/10 300 м
[Cb cap]
-11.2 -12.5 90 -17 -17 1012.7 1007.2
21 12.12 Ю 3 10 км слабый ливневой снег {метель} 10/10 300 м
[Cb cap]
-12.6 -13.9 90 -19 -19 1011.9 1006.4
00 13.12 ЮЗ 3 10 км слабый ливневой снег {метель} 10/10 300 м
[Cb cap]
-13.4 -15.4 85 -20 -20 1011.6 1006.1 -13.8 1 55
03 13.12 Ю 3 10 км слабый ливневой снег {метель} 10/10 300 м
[Cb cap]
-13.4 -15.4 85 -20 -20 1011.1 1005.5
06 13.12 Ю 3 2000 м ливневой снег {метель} 10/10 300 м
[Cb cap]
-13.6 -15.6 85 -20 -20 1010.2 1004.6
09 13.12 Ю 5 4000 м слабый ливневой снег {метель} 10/10 300 м
[Cb cap]
-14.4 -16.4 85 -23 -23 1009.7 1004.1
12 13.12 Ю 4 2000 м ливневой снег {метель} 10/10 300 м
[Cb cap]
-14.6 -16.6 85 -22 -22 1008.5 1002.9 -13.2 1
15 13.12 Ю 3 2000 м ливневой снег {метель} 10/10 300 м
[Cb cap]
-14.4 -16.4 85 -21 -21 1007.0 1001.4
18 13.12 Ю 3 2000 м ливневой снег {метель} 10/10 300 м
[Cb cap]
-14.2 -16.2 85 -21 -21 1005.9 1000.3
21 13.12 Ю 3 2000 м ливневой снег {метель} 10/10 300 м
[Cb cap]
-13.6 -14.9 90 -20 -20 1004.7 999.1
00 14.12 Ю 1 4000 м слабый ливневой снег {метель} 9/8 300 м
[Cb cap Cs]
-14.3 -15.6 90 -17 -17 1004.8 999.2 -14.8 2 55
03 14.12 СЗ 1 10 км слабый ливневой снег 4/4 300 м
[Cb cap]
-20.0 -21.9 85 -23 -23 1005.3 999.6 -20.2
06 14.12 ЮВ 1 10 км слабый снег {ливн. осадки} 9/3 600 м
[Sc Cs]
-23.4 -25.9 80 -27 -27 1005.0 999.2
09 14.12 ЮВ 1 10 км слабый снег 9/4 600 м
[Sc Cs]
-21.8 -23.6 85 -25 -25 1004.4 998.7
12 14.12 ЮВ 3 4000 м слабый снег {метель} 9/8 600 м
[Sc Cs]
-16.6 -17.9 90 -24 -24 1001.5 995.9 -14.1 0.3
15 14.12 ЮВ 5 2000 м ливневой снег {метель} 10/10 300 м
[Cb cap]
-15.3 -17.3 85 -24 -24 996.7 991.2
18 14.12 В 2
{11}
2000 м ливневой снег {метель} 10/10 300 м
[Cb cap]
-14.3 -16.3 85 -19 -19 993.3 987.8
21 14.12 СВ 3 4000 м слабый ливневой снег {метель} 10/10 300 м
[Cb cap]
-14.5 -16.5 85 -21 -21 993.7 988.2
00 15.12 С 3 20 км {ливн. осадки, метель} ясно -17.8 -20.4 80 -25 -25 998.6 993.0 -17.8 4 62
03 15.12 С 3 20 км позёмок {метель} ясно -22.0 -24.6 79 -30 -30 1003.3 997.6 -22.2
06 15.12 СЗ 2 20 км {метель} ясно -24.7 -27.2 80 -31 -31 опасность
обморожения
1007.5 1001.7
09 15.12 штиль 0 20 км ясно -29.8 -32.2 80 -30 -30 1011.1 1005.1
12 15.12 В 1 20 км ясно -30.3 -32.8 79 -34 -34 опасность
обморожения
1013.6 1007.6 -17.6
15 15.12 ЮВ 1 10 км слабый ливневой снег 10/10 300 м
[Cb cap]
-26.0 -28.4 80 -30 -30 1015.3 1009.4
18 15.12 Ю 3 10 км слабый ливневой снег 10/10 300 м
[Cb cap]
-24.6 -27.2 79 -33 -33 опасность
обморожения
1016.6 1010.7
21 15.12 10 км слабый ливневой снег н/о -24.0 -26.5 80 -30 -30 1017.2 1011.3
00 16.12 10 км слабый ливневой снег н/о -23.4 -25.9 80 -30 -30 1017.2 1011.3 -30.8 0.0 70
03 16.12 Ю 2 10 км слабый ливневой снег 10/10 300 м
[Cb cap]
-22.0 -24.6 79 -28 -28 1016.9 1011.2
06 16.12 Ю 4 10 км слабый ливневой снег 10/10 300 м
[Cb cap]
-21.4 -23.9 80 -31 -31 опасность
обморожения
1016.2 1010.5
09 16.12 Ю 4 10 км слабый ливневой снег {метель} 10/10 300 м
[Cb cap]
-21.0 -23.5 80 -30 -30 1015.6 1009.9
12 16.12 Ю 4 10 км слабый ливневой снег {метель} 10/10 300 м
[Cb cap]
-21.0 -23.5 80 -30 -30 1014.4 1008.7 -20.6 0.2
15 16.12 Ю 4 10 км слабый ливневой снег {метель} 10/10 300 м
[Cb cap]
-22.0 -24.6 79 -31 -31 опасность
обморожения
1012.3 1006.6
18 16.12 Ю 4 4000 м слабый ливневой снег {метель} 10/10 300 м
[Cb cap]
-21.8 -23.6 85 -31 -31 опасность
обморожения
1010.1 1004.4
21 16.12 Ю 4 1000 м ливневой снег {метель} 10/10 300 м
[Cb cap]
-19.4 -21.3 85 -28 -28 1005.8 1000.1
00 17.12 Ю 3 1000 м ливневой снег {метель} 10/10 300 м
[Cb cap]
-17.8 -19.7 85 -25 -25 1004.3 998.6 -22.2 2 56
03 17.12 ЮВ 2 1000 м ливневой снег {метель} 10/10 300 м
[Cb cap]
-16.2 -18.1 85 -21 -21 1002.9 997.3
06 17.12 В 2 1000 м ливневой снег {метель} 10/10 300 м
[Cb cap]
-14.6 -15.9 90 -20 -20 1001.6 996.0
09 17.12 В 2 1000 м ливневой снег 10/10 300 м
[Cb cap]
-12.2 -13.5 90 -17 -17 999.7 994.3
12 17.12 В 2 1000 м ливневой снег 10/10 300 м
[Cb cap]
-9.6 -10.4 94 -14 -14 998.4 993.0 -9.4 5
15 17.12 В 1 4000 м слабый ливневой снег 10/10 300 м
[Cb cap]
-9.1 -9.8 95 -12 -12 998.3 992.9
18 17.12 ЮЗ 1 4000 м слабый ливневой снег 10/10 300 м
[Cb cap]
-6.7 -7.6 93 -9 -9 997.1 991.8
21 17.12 З 5-10
{10}
10 км слабый ливневой снег {метель} 10/10 300 м
[Cb cap]
-2.0 -2.9 94 -9 -9 996.8 991.6
00 18.12 З 4-10
{12}
2000 м ливневой снег {метель} 10/10 300 м
[Cb cap]
-3.0 -4.3 91 -9 -9 995.5 990.2 -9.8 2 60
03 18.12 З 4
{10}
2000 м ливневой снег {метель} 10/10 300 м
[Cb cap]
-3.6 -4.7 92 -10 -10 993.6 988.3
06 18.12 З 4 2000 м ливневой снег {метель} 10/10 300 м
[Cb cap]
-4.0 -5.5 89 -10 -10 992.4 987.1
09 18.12 З 5 4000 м слабый ливневой снег {метель} 10/10 300 м
[Cb cap]
-4.6 -6.2 89 -12 -12 990.8 985.5
12 18.12 З 4 2000 м ливневой снег {метель} 10/10 300 м
[Cb cap]
-6.0 -7.5 89 -13 -13 989.0 983.6 -5.8 3
15 18.12 З 5 1000 м ливневой снег {метель} 10/10 300 м
[Cb cap]
-7.0 -8.3 90 -15 -15 987.9 982.6
18 18.12 З 6-10
{14}
10 км слабый ливневой снег {метель} 9/6 300 м
[Cb cap Ci fib]
-9.9 -13.5 75 -18 -18 988.8 983.4
21 18.12 З 4
{11}
10 км слабый ливневой снег {метель} 9/6 300 м
[Cb cap Ci fib]
-11.8 -14.6 80 -19 -19 989.0 983.6
00 19.12 СЗ 7-11
{14}
4000 м слабый ливневой снег {метель} 10/10 300 м
[Cb cap]
-17.4 -20.8 75 -28 -28 990.9 985.4 -17.6 1 61
03 19.12 СЗ 5
{12}
4000 м слабый ливневой снег {метель} 9/6 300 м
[Cb cap Cs]
-28.0 -31.9 69 -40 -40 опасность
обморожения
995.9 990.0 -28.4
06 19.12 З 3
{10}
20 км позёмок {ливн. осадки, метель} 8/3 600 м
[Sc Ci sp]
-30.1 -33.2 74 -40 -40 опасность
обморожения
998.0 992.1
09 19.12 З 3 20 км позёмок {метель} 6/0
[Ci sp]
-31.6 -34.5 75 -42 -42 опасность
обморожения
999.7 993.8

 

Местоположение метеостанции Туруханск (Красноярский край, Россия): широта 65.78 долгота 87.93 высота над уровнем моря 38 м.

В архиве по умолчанию представлена погода в Туруханске за последнюю неделю. Архивные данные за месяц целиком и за предыдущие месяцы, начиная с января 2011 года, Вы можете получить, выбрав интересующий диапазон дат из раскрывающегося списка и нажав кнопку "Ввод!".


*Определитесь, кто Вы:
робот инопланетянин человек

Внимание! Время в таблицах - всемирное. Для получения местного времени необходимо прибавить поправку, которая в Туруханске равна 7 ч.

Смотрите также архив погоды в соседних городах и на ближайших метеорологических станциях:

Погода в Курейке (Красноярский край, Россия) (83 км)
Погода в Большом Пороге (Эвенкия, Россия) (98 км)
Погода в Светлогорске (Красноярский край, Россия) (132 км)
Погода в Верещагино (Красноярский край, Россия) (174 км)
Погода в Горбиачине (Красноярский край, Россия) (189 км)
Погода в Игарке (Красноярский край, Россия) (197 км)
Погода в Советской Речке (Красноярский край, Россия) (218 км)
Погода в Красноселькупске (Ямало-Ненецкий АО, Россия) (251 км)
Погода в Снежногорске (Красноярский край, Россия) (258 км)
Погода в Агате (Эвенкия, Россия) (276 км)

Пояснения к столбцам:

Ветер - указаны скорость ветра в м/с - средняя за 10 мин, порывы в срок и между сроками (в фигурных скобках) и направление, откуда дует ветер: С - северный, СВ - северо-восточный, В - восточный, ЮВ - юго-восточный, Ю - южный, ЮЗ - юго-западный, З - западный, СЗ - северо-западный.
Видимость - горизонтальная дальность видимости в метрах или километрах. При видимости от 1 до 10 км при отсутствии осадков обычно наблюдается дымка, при ухудшении видимости до 1 км и менее - туман. В сухую погоду видимость может ухудшаться дымом, пылью или мглою.
Явления - указаны атмосферные явления, наблюдавшиеся в срок или в последний час перед сроком; фигурными скобками обозначены явления, наблюдавшиеся между сроками (за 1-3 часа до срока); квадратными скобками обозначены град или гололедные отложения с указанием их диаметра в мм.
Облачность - указаны через наклонную черту общая и нижняя облачность в баллах и высота нижней границы облаков в метрах; квадратными скобками обозначены формы облаков: Ci - перистые, Cs - перисто-слоистые, Cc - перисто-кучевые, Ac - высококучевые, As - высокослоистые, Sc - слоисто-кучевые, Ns - слоисто-дождевые, Cu - кучевые, Cb - кучево-дождевые. Подробнее классификацию облаков см. в Атласе облаков (PDF).
T - Температура воздуха - температура, измеренная на высоте 2 м над землей.
Td - Температура точки росы - температура, при понижении до которой содержащийся в воздухе водяной пар достигнет насыщения.
f - Относительная влажность воздуха - влажноcть воздуха, измеренная на высоте 2 м над землей.
Te - Эффективная температура - температура, которую ощущает одетый по сезону человек в тени. Характеристика душности погоды. При расчете учитывается влияние влажности воздуха и скорости ветра на теплоощущения человека.
Tes - Эффективная температура на солнце - температура, которую ощущает человек, с поправкой на солнечный нагрев. Характеристика знойности погоды. Зависит от высоты солнца над горизонтом, облачности и скорости ветра. Ночью, в пасмурную погоду, а также при ветре 12 м/с и более поправка равна нулю.
P - Атмосферное давление - приведенное к уровню моря атмосферное давление.
Po - Атмосферное давление - измеренное на уровне метеостанции атмосферное давление.
Tmin - Минимальная температура - минимум температуры воздуха на высоте 2 м над землей.
Tmax - Максимальная температура - максимум температуры воздуха на высоте 2 м над землей.
R - Количество осадков - Количество выпавших осадков за период времени, мм. При наведении курсора мыши на число - период времени, за который выпало указанное количество осадков.
R24 - Количество осадков - Количество выпавших осадков за 24 часа, мм.
S - Снежный покров - Высота снежного покрова, см. При наведении курсора мыши на число - состояние снежного покрова и степень покрытия местности в баллах.